GFSGL_925_temp_159.txt.gz
Temp
25 24 24 24 24 24 24 24 25 25 25 25 25 25 25 25 25 25 24 24 24 24 24 24 25 25 25 25 25 24 24 24 22 23 23 22 22 21 21 21 21 21 20
24 24 24 23 23 24 24 24 24 25 24 24 24 24 25 25 24 24 24 24 24 24 24 24 24 25 24 25 25 25 24 24 24 23 23 23 22 21 21 21 21 20 20
23 24 24 24 23 23 24 24 24 24 24 24 24 24 24 24 24 24 24 24 24 24 24 24 24 24 24 24 24 24 24 24 24 23 22 22 22 21 20 20 20 20 20
23 23 23 24 24 24 23 23 23 24 24 24 24 24 24 24 23 23 23 23 23 24 24 24 24 24 25 24 24 23 23 23 24 24 22 22 21 21 20 19 19 19 18
22 22 21 21 22 22 22 23 23 23 24 24 24 24 23 23 23 23 22 23 23 23 23 24 23 24 24 24 24 23 22 22 22 23 22 21 21 19 19 19 18 18 17
21 21 21 20 19 19 20 20 24 24 24 23 23 22 22 22 22 22 22 22 23 23 23 23 22 22 23 23 23 24 24 23 22 21 22 21 21 20 19 19 18 16 16
20 19 19 20 19 19 19 20 22 22 21 20 21 20 20 19 20 21 21 21 21 23 23 23 22 22 22 23 23 22 22 22 21 21 22 20 20 19 19 19 17 17 17
18 19 19 19 19 19 19 19 19 19 19 20 19 19 18 18 20 21 20 20 20 21 21 21 21 21 21 20 21 21 20 20 20 21 21 19 20 20 20 19 18 18 17
19 19 20 19 18 18 18 18 19 19 19 18 18 18 18 18 19 19 19 19 19 19 19 19 19 19 19 19 19 19 18 17 17 18 18 18 18 19 19 19 18 17 15
19 19 19 18 18 18 18 18 18 18 17 17 16 16 16 17 18 18 18 18 18 18 18 18 19 19 18 18 18 18 17 16 16 16 16 17 17 18 18 18 16 16 15
17 18 18 18 18 18 18 18 17 16 16 15 15 15 15 16 17 17 17 17 17 17 17 17 18 18 18 17 17 17 17 15 15 15 15 15 15 15 15 15 16 15 15
17 17 17 17 17 17 17 16 16 15 15 14 14 14 14 14 15 15 16 17 16 16 14 14 15 15 16 17 17 17 16 15 15 15 14 13 13 13 12 12 12 13 13
17 16 16 16 16 16 16 15 15 15 15 14 14 14 14 13 14 14 14 15 14 15 14 14 14 14 15 14 14 14 14 14 14 14 12 12 12 12 12 13 13 13 13
16 16 16 16 15 15 15 15 15 15 15 14 14 13 13 13 13 13 14 13 13 13 13 13 13 13 13 13 13 13 13 13 13 13 12 12 13 12 13 13 13 13 13
16 15 15 15 16 16 16 16 16 16 15 15 15 15 14 13 13 13 14 13 13 13 13 13 13 13 13 13 13 13 13 13 13 13 13 13 13 13 13 13 13 13 12
15 15 15 15 15 15 15 15 15 16 16 16 15 15 15 14 14 13 13 13 13 13 13 13 13 13 13 13 13 13 12 12 13 13 13 13 13 13 13 12 12 12 12
16 15 15 15 15 15 15 15 14 14 15 15 15 14 14 14 14 13 13 14 14 14 13 13 13 13 12 12 12 12 12 12 12 12 12 12 12 12 12 12 12 12 11
16 15 16 16 16 16 15 15 15 15 14 14 14 14 13 13 13 14 14 14 14 14 14 14 13 13 13 13 13 13 12 12 12 12 12 12 12 13 12 12 11 11 11
16 16 16 16 16 16 16 16 15 15 15 14 14 14 14 14 14 14 15 15 15 15 14 14 14 14 13 13 13 12 12 12 12 12 13 13 12 12 12 11 11 10 10
17 17 18 17 16 16 16 16 16 16 15 15 15 15 14 14 14 15 15 15 15 15 15 15 14 14 14 13 13 12 12 12 12 12 12 12 12 11 11 11 10 10 10
18 18 18 18 18 18 17 17 17 17 17 16 17 16 15 15 15 15 16 16 16 15 15 15 15 14 14 13 13 13 12 12 12 12 12 11 11 11 11 10 10 10 10
18 18 18 18 18 18 18 18 18 17 17 17 17 17 16 16 16 16 16 16 16 16 15 15 15 14 14 13 13 13 12 12 12 11 11 11 11 10 10 10 10 10 10
18 18 18 19 18 18 18 18 19 18 18 18 18 17 17 17 16 16 16 16 16 16 16 15 15 14 14 14 13 13 13 13 12 11 11 11 11 11 10 10 10 10 10
18 18 18 18 19 19 19 18 18 18 17 18 18 18 17 17 17 17 17 16 16 16 16 16 16 15 14 14 13 13 13 13 12 12 11 11 11 11 11 11 11 11 10
18 18 18 18 18 19 19 18 18 18 18 18 18 18 18 17 17 17 17 17 16 16 16 16 15 15 15 14 14 14 13 12 12 12 12 11 11 11 11 11 11 11 10
17 17 18 18 19 19 18 18 18 17 17 18 18 18 18 16 16 16 16 17 17 17 15 15 15 15 15 14 14 14 13 13 12 12 12 12 11 11 11 11 11 10 10

GFSGL_925_temp_162.txt.gz
Temp
24 24 24 24 23 23 24 24 24 25 25 25 25 25 24 25 24 25 24 24 24 24 24 24 24 24 24 24 24 24 24 23 22 22 21 21 21 20 20 20 21 21 20
24 24 24 24 23 23 23 23 24 24 25 25 24 24 24 24 24 24 24 24 24 24 24 24 24 24 24 24 24 24 23 23 23 22 22 21 21 20 20 20 20 20 20
23 23 23 23 23 23 23 23 23 24 24 24 24 24 24 24 24 24 24 24 24 24 23 23 24 24 24 24 24 23 23 23 22 23 22 21 21 20 19 19 19 19 19
22 22 22 23 23 23 23 23 23 23 23 23 24 24 24 24 23 23 23 23 23 23 23 23 23 23 24 24 24 24 23 23 22 22 22 21 21 20 19 18 18 18 19
20 21 22 22 22 22 23 22 22 22 23 23 23 23 23 23 23 23 22 22 22 22 23 23 23 23 23 24 23 23 23 23 23 22 21 21 20 19 18 18 18 17 17
20 20 21 21 22 21 21 21 22 22 22 22 22 22 22 21 21 22 21 21 21 21 22 22 22 21 22 22 22 22 21 22 22 21 21 20 20 19 19 18 17 16 17
20 19 19 20 20 21 21 21 21 20 20 21 20 19 19 20 20 20 20 20 20 20 20 21 21 21 21 22 20 20 19 21 21 20 20 19 18 18 18 18 18 17 17
18 19 19 19 19 19 19 19 18 18 18 19 19 18 19 20 20 20 19 19 20 19 20 20 20 20 20 20 19 18 18 19 20 19 19 17 18 19 19 18 18 17 16
18 18 18 19 19 19 18 18 18 18 18 18 18 18 19 19 19 19 19 19 19 19 19 19 19 19 19 18 18 18 17 17 17 18 17 17 18 18 19 17 17 17 15
17 18 18 18 18 19 18 18 18 18 17 17 16 17 17 18 18 18 18 18 18 18 18 18 18 18 18 18 18 18 17 15 16 16 16 16 16 17 17 17 16 16 15
18 17 18 18 18 18 17 17 17 17 16 15 15 15 15 16 17 17 17 17 17 16 16 16 16 17 17 17 17 17 17 15 15 15 15 15 15 15 15 15 15 15 14
17 17 17 17 17 18 17 16 15 15 14 14 14 14 14 14 14 15 16 16 16 16 16 15 15 15 16 17 17 16 16 15 15 15 14 13 13 12 13 13 14 13 13
16 16 16 16 16 16 16 15 14 14 14 13 14 14 13 14 14 14 15 15 15 15 15 14 14 14 15 15 14 14 14 14 14 14 13 12 12 12 13 13 13 13 13
16 16 16 16 15 15 15 15 15 15 14 14 14 13 13 13 13 14 14 14 14 14 13 13 13 13 14 13 13 13 13 13 13 13 13 12 12 12 13 13 13 13 12
16 15 15 15 15 15 15 15 15 15 15 15 15 15 14 13 13 13 14 13 13 13 13 13 13 13 13 12 12 12 12 12 13 13 13 12 12 12 12 13 13 13 11
15 15 15 15 15 15 15 14 15 15 16 15 15 15 14 14 13 13 13 13 13 13 13 13 12 12 12 12 12 12 12 12 12 13 13 13 13 12 12 12 12 12 11
15 15 15 15 15 15 16 16 15 14 15 14 15 14 14 14 13 13 14 13 14 14 14 13 13 12 12 12 12 12 12 12 12 12 13 12 12 12 12 12 11 11 10
15 15 15 15 15 15 15 15 15 15 14 13 14 13 13 13 13 13 13 14 13 13 14 13 13 13 13 12 12 12 12 12 12 12 12 12 12 12 12 11 11 10 10
15 15 15 15 15 15 15 15 14 14 14 14 13 13 13 14 14 14 14 14 14 14 14 14 14 13 13 13 13 12 12 12 12 12 12 12 12 12 11 11 10 10 10
16 16 16 16 15 15 15 16 15 15 14 13 13 13 13 13 13 14 14 15 15 15 14 14 14 13 13 13 13 13 12 12 12 12 12 12 11 11 11 10 10 10 9
17 17 17 16 16 16 16 16 16 16 16 16 15 15 15 15 15 15 15 15 15 15 15 15 14 14 14 13 13 12 12 12 12 12 12 11 11 11 11 10 10 10 10
18 18 18 17 17 17 17 17 17 17 17 16 16 16 16 15 16 16 16 16 16 16 15 15 15 14 14 14 13 13 13 13 12 12 11 11 11 10 10 10 10 10 10
18 18 18 18 18 18 18 18 18 18 18 17 16 16 16 16 17 17 17 17 16 16 15 15 15 14 14 13 13 13 13 13 12 12 11 11 10 10 10 10 10 10 10
18 18 18 17 17 18 18 18 18 18 18 18 18 17 17 17 17 17 16 16 16 16 15 15 15 15 14 14 13 13 13 12 12 12 11 11 11 10 10 11 11 11 10
18 18 18 18 18 18 18 19 19 18 18 18 18 17 18 17 17 16 16 16 16 16 16 16 15 15 15 15 14 14 13 13 12 12 12 11 11 11 11 11 11 11 11
17 17 18 18 18 18 18 17 17 17 17 17 17 17 18 17 17 17 16 15 16 16 16 16 15 15 15 14 14 14 13 13 12 12 12 12 11 11 11 11 11 10 10

GFSGL_925_temp_168.txt.gz
Temp
26 26 25 25 25 24 24 24 24 24 24 24 24 24 25 25 25 24 25 25 24 25 25 25 25 24 26 25 26 25 25 27 29 27 26 23 22 22 21 20 20 21 20
27 26 26 25 25 25 24 25 24 24 24 24 24 24 24 25 24 24 25 26 25 25 25 25 25 26 24 25 26 24 25 25 26 26 24 24 23 20 20 21 22 21 21
26 26 26 25 25 25 25 24 24 24 24 24 24 24 24 24 24 24 24 25 25 25 25 25 25 25 24 26 25 25 25 24 24 25 24 24 22 20 20 20 20 21 20
24 25 25 25 25 25 25 24 24 24 24 24 23 24 24 24 24 24 24 24 24 25 25 25 24 25 25 24 24 24 24 24 24 24 23 23 22 21 21 22 21 22 22
23 24 24 24 24 24 25 24 24 24 24 24 23 23 24 24 24 23 24 24 23 24 24 24 23 23 23 23 23 23 23 23 23 25 26 24 23 21 20 19 20 20 18
22 23 23 23 23 23 23 23 23 23 23 23 23 23 23 24 22 23 23 23 23 23 23 23 22 22 21 22 22 22 22 21 22 22 22 22 22 23 21 19 19 19 19
21 21 22 21 20 21 22 21 23 23 23 23 23 23 23 22 21 22 22 22 22 22 20 21 21 20 19 20 20 21 20 20 20 20 20 20 21 20 21 20 19 20 18
21 21 20 20 20 21 21 21 20 20 21 21 21 21 20 19 20 20 20 21 20 20 19 19 19 19 19 19 19 17 17 17 19 18 19 18 19 19 18 19 19 17 16
19 20 19 20 20 19 19 19 19 19 19 19 19 19 18 17 18 19 20 21 20 18 17 18 18 19 19 18 18 17 17 15 17 18 18 18 18 18 18 18 18 18 17
18 19 18 18 19 19 18 18 18 18 17 17 17 17 16 16 18 18 19 19 19 18 16 17 18 19 18 17 17 17 16 15 15 15 16 15 15 17 17 16 18 18 16
17 18 18 18 18 18 18 18 17 17 17 16 16 15 15 16 17 17 17 17 17 17 16 15 16 17 17 16 16 16 15 15 15 15 15 14 14 14 14 15 15 16 15
16 16 17 18 18 17 17 17 16 16 15 14 14 14 14 15 15 16 16 17 16 16 15 15 16 16 16 16 16 15 14 13 13 13 12 13 14 14 14 14 13 13 13
16 16 16 16 16 17 16 15 15 14 14 13 13 13 13 13 14 15 15 15 15 15 14 14 14 14 15 14 14 13 13 13 13 12 12 12 13 14 14 14 13 14 13
15 14 15 15 15 14 14 14 14 14 14 14 15 14 14 13 13 13 13 14 14 13 12 12 12 12 12 12 12 12 13 13 13 13 13 14 16 16 16 17 17 17 16
15 15 14 15 14 14 14 15 16 15 16 18 18 17 15 14 14 14 16 16 15 14 13 13 13 13 13 12 13 13 14 14 15 16 16 16 16 16 16 16 17 17 17
16 16 16 15 15 16 15 14 15 15 15 15 15 16 14 14 14 14 14 14 15 15 17 18 18 18 17 17 16 16 15 15 16 16 16 16 16 16 16 16 16 16 16
18 18 18 19 18 17 17 17 15 13 15 15 15 14 14 14 14 14 15 15 16 17 18 18 18 17 17 17 17 17 16 15 15 16 16 16 16 15 16 16 16 16 16
18 17 18 18 18 19 19 19 19 18 18 14 13 14 14 14 14 14 15 16 18 18 19 18 18 17 17 17 17 16 16 16 16 16 16 16 16 16 16 16 16 16 16
19 19 19 19 19 18 19 19 19 19 19 16 14 13 14 14 14 15 16 18 19 19 18 18 18 17 17 16 16 16 16 16 16 16 16 16 16 16 16 15 14 14 15
19 18 19 19 19 19 20 20 20 19 19 19 19 18 16 15 17 18 18 18 19 19 19 18 18 17 16 16 16 16 15 15 15 16 16 16 16 16 16 16 16 16 15
19 18 19 20 20 20 20 20 20 20 20 20 20 18 18 19 20 19 19 19 19 19 18 18 17 17 16 16 16 16 16 16 16 16 16 15 15 15 15 15 15 15 15
20 20 20 21 20 20 20 20 21 21 21 21 20 17 17 17 20 20 19 19 19 18 18 17 17 17 17 16 16 16 16 16 16 15 15 15 15 15 15 15 15 15 14
21 21 21 21 21 20 20 21 21 21 21 21 21 20 18 19 20 20 20 19 19 18 18 17 17 17 16 16 16 16 16 16 16 15 15 15 15 15 15 15 15 15 15
22 22 22 21 21 21 21 21 21 21 22 21 21 21 21 20 20 20 20 19 19 19 18 18 18 17 17 16 16 16 16 16 15 15 14 15 15 14 15 15 15 15 14
22 22 22 22 21 21 22 22 22 22 21 21 21 21 20 20 20 20 20 19 18 18 18 17 17 17 16 16 16 16 16 15 14 15 14 14 14 14 15 15 15 14 14
22 22 22 22 22 22 22 22 22 21 21 21 20 19 20 20 20 20 20 19 18 18 17 16 16 16 16 16 15 15 15 14 14 13 14 14 14 14 14 14 14 14 14

GFSGL_925_temp_174.txt.gz
Temp
26 26 25 25 24 25 25 25 25 25 24 24 25 26 25 26 26 25 25 25 25 24 25 25 25 26 26 26 26 27 28 26 24 24 21 24 24 23 22 22 21 20 20
27 27 26 26 25 25 25 26 26 25 25 25 25 25 25 25 26 25 25 25 24 24 25 26 26 26 26 26 26 27 27 26 26 26 24 24 23 23 22 22 21 20 20
27 27 27 26 26 26 26 26 26 25 25 25 25 25 25 25 25 25 25 25 25 25 26 26 26 26 26 25 25 25 25 26 25 25 25 24 23 23 22 22 21 19 20
27 28 27 27 26 26 27 26 26 25 25 25 24 24 24 25 25 25 25 25 25 26 26 26 26 25 25 25 24 24 25 25 24 24 24 23 23 23 23 21 19 20 18
27 27 27 27 26 26 27 26 26 25 25 24 24 24 24 24 25 25 25 24 24 24 25 25 25 24 24 24 24 24 24 24 23 24 23 22 21 19 22 22 20 20 19
25 26 27 27 27 26 26 26 25 25 25 24 24 24 24 24 25 25 25 24 24 24 24 23 23 23 23 23 23 23 23 23 22 22 22 22 22 22 21 22 20 19 18
24 25 25 26 26 25 25 25 25 24 24 24 24 24 23 23 23 23 24 24 24 23 22 22 22 21 21 21 21 21 21 21 21 21 20 19 19 19 20 21 20 20 18
22 23 24 24 24 24 25 24 24 23 23 23 23 23 23 22 22 22 23 23 23 22 21 21 21 20 21 21 20 20 19 19 19 19 18 17 18 19 19 19 19 18 17
21 22 22 22 23 23 24 23 22 23 23 23 22 23 22 20 20 21 22 21 21 20 20 20 20 20 20 20 20 19 17 16 16 17 16 16 17 18 18 18 18 17 16
20 20 20 21 22 23 23 22 21 21 20 19 20 20 19 19 19 20 20 20 20 19 18 17 18 19 19 19 19 18 17 15 15 15 16 16 17 17 18 18 18 17 15
18 18 19 20 19 20 20 19 19 18 18 18 18 17 17 18 18 18 19 19 19 18 17 17 17 17 17 18 18 18 17 15 15 15 15 15 16 16 16 16 16 17 16
16 17 18 18 18 18 18 17 18 17 16 15 15 15 15 16 17 17 17 18 18 18 17 16 16 16 16 16 16 15 15 15 15 14 14 14 14 15 15 15 15 15 15
15 15 16 17 16 15 16 16 15 15 14 14 14 14 14 14 15 16 16 16 16 16 16 16 15 16 15 15 14 14 14 14 14 14 14 15 15 15 15 15 15 15 15
15 15 15 16 14 14 14 14 14 14 14 14 14 13 13 14 14 15 15 15 15 15 14 13 13 14 14 14 13 13 14 14 14 15 16 16 16 16 16 16 16 15 15
15 15 14 14 14 14 14 14 14 15 15 14 14 14 14 13 14 15 15 14 15 15 14 14 13 13 14 14 14 15 15 16 16 16 16 16 17 17 17 17 17 16 16
16 15 14 14 14 14 13 13 13 14 15 15 15 16 15 15 15 15 16 15 15 15 14 14 14 15 15 15 16 16 16 16 17 17 17 17 17 17 17 18 18 17 17
16 15 15 15 15 14 14 13 13 13 15 15 16 16 16 16 15 15 15 16 16 16 17 16 16 16 17 18 18 18 18 17 18 17 17 17 17 17 17 17 17 17 17
18 17 17 17 16 16 16 15 14 14 14 14 15 15 15 15 16 16 17 16 17 18 19 19 19 19 19 19 18 17 17 17 18 17 17 17 17 17 17 17 17 17 17
20 21 20 20 20 19 18 17 17 16 16 14 14 14 15 16 16 17 18 18 18 20 20 20 19 19 19 18 18 18 18 18 17 18 18 18 18 18 18 18 17 17 17
20 21 20 21 21 21 21 19 20 18 16 15 16 16 16 16 17 18 19 20 20 21 20 20 19 19 18 18 17 17 17 17 17 18 18 18 18 18 18 18 17 16 17
22 21 22 21 21 22 22 22 21 20 20 19 19 17 17 17 18 20 20 21 21 20 20 19 19 18 18 17 17 17 17 18 18 18 17 17 17 18 17 17 17 17 17
23 22 22 23 23 23 23 23 22 22 22 21 20 19 18 18 19 21 21 21 20 20 19 19 18 18 18 18 18 18 19 19 18 18 18 17 17 17 17 17 17 17 17
23 22 23 23 23 23 23 23 23 23 23 22 21 20 19 20 22 21 21 21 20 20 19 19 19 19 19 18 18 18 18 19 18 18 17 17 17 17 17 17 17 17 16
24 24 24 24 23 23 23 23 24 24 24 23 21 21 21 21 22 22 22 21 21 20 20 19 19 19 19 19 18 18 18 18 18 17 17 17 17 17 16 16 17 17 15
24 25 24 24 23 23 23 23 24 23 23 24 24 22 22 22 22 22 22 22 21 21 20 20 19 19 19 18 18 18 18 18 17 17 16 16 16 16 16 16 16 16 16
23 25 25 25 24 23 23 23 24 24 23 23 23 24 23 23 22 22 21 21 21 21 20 20 20 19 18 18 18 18 17 17 16 16 16 15 15 15 15 14 14 15 15